Regional Weather Roundup
Issued by NWS

Home | Current Version | Previous Version | Graphics & Text | Print | Product List | Glossary On
Versions: 1 2 3 4 5 6 7 8 9 10 11 12 13 14 15 16 17 18 19 20 21 22 23 24 25 26 27 28 29 30 31 32 33 34 35 36 37 38 39 40 41 42 43 44 45 46 47 48 49 50
000
ASUS43 KMKX 010711
RWRWI

WISCONSIN REGIONAL WEATHER ROUNDUP
NATIONAL WEATHER SERVICE MILWAUKEE/SULLIVAN WI
200 AM CDT MON SEP 01 2014

NOTE: "FAIR" INDICATES FEW OR NO CLOUDS BELOW 12,000 FEET WITH NO
SIGNIFICANT WEATHER AND/OR OBSTRUCTIONS TO VISIBILITY.

WIZ001-002-006>008-014>016-023>028-010800-
NORTHWEST WISCONSIN

CITY           SKY/WX    TMP DP  RH WIND       PRES   REMARKS
SUPERIOR ARPT  DRIZZLE   62  62  99 SW3       29.59F
ASHLAND        LGT RAIN  67  65  93 S9        29.62F
HAYWARD        LGT RAIN  66  65  96 SW3       29.63F
SIREN          RAIN      65  64  97 CALM      29.63F
RICE LAKE      RAIN      66  64  94 CALM      29.66F
LADYSMITH      RAIN      66  65  94 E7        29.67F
EAU CLAIRE     LGT RAIN  66  66 100 W8        29.65S FOG
MENOMONIE      RAIN      66  65  97 S8        29.67R
NEW RICHMOND   RAIN      65  65  99 S7        29.65F
OSCEOLA        LGT RAIN  65  65 100 S5        29.66F
$$

WIZ003>005-009-010-017-018-010800-
NORTH CENTRAL WISCONSIN

CITY           SKY/WX    TMP DP  RH WIND       PRES   REMARKS
WOODRUFF       HVY RAIN  66  64  93 CALM      29.73F
RHINELANDER    CLOUDY    65  63  93 SW9G20    29.74F
EAGLE RIVER    LGT RAIN  66  66 100 CALM      29.73F
LAND O LAKES   RAIN      67  65  92 S5        29.73F
PHILLIPS       CLOUDY    65  64  98 E6        29.68F
TOMAHAWK       CLOUDY    64  63  94 CALM      29.72F
MEDFORD        CLOUDY    69  67  93 S10       29.68F
MERRILL        CLOUDY    69  68  98 S8        29.71F
$$

WIZ029-030-035-036-043>047-010800-
CENTRAL WISCONSIN

CITY           SKY/WX    TMP DP  RH WIND       PRES   REMARKS
WAUSAU         CLOUDY    70  67  90 S12       29.71F
MOSINEE        CLOUDY    70  68  94 S13       29.74F
MARSHFIELD     CLOUDY    72  59  63 SW14G25   29.71F
STEVENS POINT  CLOUDY    72  66  82 S14G21    29.75S
WAUPACA        CLOUDY    74  71  88 S7        29.75F
WAUTOMA        CLOUDY    74  70  87 SW9       29.76F
WISC RAPIDS    CLOUDY    75  59  57 SW20G30   29.75S
CAMP DOUGLAS   CLOUDY    71  61  70 SW8G25    29.73F
$$

WIZ011>013-019>022-031-037>040-048>050-010800-
NORTHEAST WISCONSIN

CITY           SKY/WX    TMP DP  RH WIND       PRES   REMARKS
ANTIGO         CLOUDY    66  65  99 S10       29.76F FOG
STURGEON BAY   MOCLDY    66  64  94 S12       29.80S
GREEN BAY      MOCLDY    70  67  90 S9        29.77F
MANITOWOC      CLOUDY    68  68 100 S8        29.81F FOG
APPLETON       CLOUDY    72  70  94 S9        29.78F
CLINTONVILLE   CLOUDY    68  66  94 S7        29.74F
OSHKOSH        CLOUDY    73  69  87 S16       29.77F
$$

WIZ032>034-041-042-053>061-010800-
SOUTHWEST WISCONSIN

CITY           SKY/WX    TMP DP  RH WIND       PRES   REMARKS
LA CROSSE      LGT RAIN  67  63  87 S13G26    29.72F
SPARTA         CLOUDY    67  59  74 S12       29.69F
VIROQUA        CLOUDY    64  64 100 SW13G21   29.78F
BOSCOBEL       LGT RAIN  67  63  87 S7        29.79F
PRAIRIE DU CHI HVY RAIN  66  62  87 SW3       29.81S
PLATTEVILLE    MOCLDY    68  63  84 W3        29.83F
$$

WIZ056-057-062-063-064-067-068-010800-
SOUTH CENTRAL WISCONSIN

CITY           SKY/WX    TMP DP  RH WIND       PRES   REMARKS
BARABOO/DELLS  CLOUDY    73  59  60 SW12G20   29.79S
LONE ROCK      CLOUDY    74  61  63 W8        29.80S
WATERTOWN      MOCLDY    70  70  99 S7        29.80F
MADISON        CLOUDY    74  69  85 SW8       29.80S
MIDDLETON      PTSUNNY   75  70  84 SW9       29.81R
MONROE         CLOUDY    72  70  94 S13G18    29.80F
JANESVILLE     MOCLDY    73  68  83 S8        29.81F
$$

WIZ051-052-058>065-066-070>072-010800-
SOUTHEAST WISCONSIN

CITY           SKY/WX    TMP DP  RH WIND       PRES   REMARKS
MILWAUKEE      PTCLDY    73  68  84 SW9       29.82F
WAUKESHA       PTCLDY    68  66  94 S5        29.83S
MILWAUKEE/TIMM PTCLDY    72  66  83 S7        29.82S
RACINE         PTCLDY    73  69  87 SW10      29.83F
BURLINGTON     PTCLDY    67  66  97 S3        29.82S FOG
KENOSHA        CLEAR     73  70  90 SW10      29.83F
FOND DU LAC    MOCLDY    73  68  84 S12       29.78F
SHEBOYGAN      MOCLDY    68  65  90 S9        29.81R
WEST BEND      MOCLDY    70  64  83 S6        29.81F
JUNEAU         MOCLDY    71  68  90 S13       29.81F
$$

LSZ147-162-010800-
LAKE SUPERIOR

STATION/POSITION TIME  TEMP    WIND        PRES    WAVE
                       AIR SEA DIR/SP/G            HT/PER
                 (UTC) (F)     (DEG/KT/KT) (MB)    (FT/S)
W MID LAKE BUOY  0650   62 58  180/ 14/ 16 1001.6R   2/ 4
DEVILS ISLAND    0700   66     180/ 12/ 17 1002.1R
PORT WING        0600   66     240/  2/  9 1002.0
SAXON HARBOR     0640   70     190/  6/ 11 1003.0F
$$

LMZ867-665-643>646-010800-
LAKE MICHIGAN

STATION/POSITION TIME  TEMP    WIND        PRES    WAVE
                       AIR SEA DIR/SP/G            HT/PER
                 (UTC) (F)     (DEG/KT/KT) (MB)    (FT/S)
N MID LAKE BUOY  0650   67 65  160/ 10/ 12 1008.8F   1
NORTHPORT PIER   0600   67     150/  7/ 10 1009.1F
KEWAUNEE LAKESHO 0600   65     190/  7/  9 1008.7F
SHEBOYGAN LAKESH 0700   69 50  200/ 12/ 12 1009.3S
ATWATER BUOY     0600   72     180/ 12/ 14 1010.9F
MILWAUKEE LAKESH 0600   71     160/  5/  6   N/A
S MID LAKE BUOY  0650   73 70  180/ 14/ 16 1010.1F   1/ 3
KENOSHA   LAKESH 0700   75     200/  9/ 15 1009.5F
$$

TC  - TEMPERATURE IN CELSIUS
VSB - VISIBILITY IN STATUTE MILES
WCI - WIND CHILL INDEX
HX  - HEAT INDEX




USA.gov is the U.S. government's official web portal to all federal, state and local government web resources and services.